Terminal Aerodrome Forecast
Issued by NWS Wichita, KS

Home | Current Version | Previous Version | Graphics & Text | Print | Product List | Glossary On
Versions: 1 2 3 4 5 6 7 8 9 10 11 12 13 14 15 16 17 18 19
000
FTUS43 KICT 232044 AAB
TAFICT
TAF AMD
KICT 232044Z 2321/2418 33016G22KT 5SM -RASN SCT015 OVC025
      TEMPO 2322/2402 2SM -SN SCT009 OVC015
     FM240400 34018G25KT P6SM OVC015=

USA.gov is the U.S. government's official web portal to all federal, state and local government web resources and services.